| time (UTC) | temp F | wind direction | speed knots | gust knots | rain 1hr in | rain 24hr in | rain mn in | humidity % | barometer mb |
| 20260906004543 | 63 | 331 | 2.6 | 7.8 | 0.00 | 0.00 | 0.00 | 53 | 1015.0 |
| 20260906003044 | 64 | 66 | 4.3 | 9.6 | 0.00 | 0.00 | 0.00 | 52 | 1015.0 |
| 20260906001542 | 64 | 95 | 3.5 | 8.7 | 0.00 | 0.00 | 0.00 | 52 | 1015.1 |
| 20260906000043 | 64 | 346 | 6.1 | 9.6 | 0.00 | 0.00 | 0.00 | 52 | 1015.1 |
| 20260905234551 | 64 | 343 | 5.2 | 11.3 | 0.00 | 0.00 | 0.00 | 53 | 1015.1 |
| 20260905233040 | 64 | 67 | 5.2 | 10.4 | 0.00 | 0.00 | 0.00 | 53 | 1015.1 |
| 20260905231540 | 63 | 314 | 3.5 | 9.6 | 0.00 | 0.00 | 0.00 | 53 | 1015.2 |
| 20260905230042 | 63 | 320 | 5.2 | 11.3 | 0.00 | 0.00 | 0.00 | 52 | 1015.2 |
| 20260905224539 | 63 | 331 | 2.6 | 8.7 | 0.00 | 0.00 | 0.00 | 53 | 1015.3 |
| 20260905223038 | 63 | 19 | 3.5 | 9.6 | 0.00 | 0.00 | 0.00 | 53 | 1015.4 |
| 20260905221536 | 63 | 14 | 3.5 | 9.6 | 0.00 | 0.00 | 0.00 | 53 | 1015.5 |
| 20260905220034 | 63 | 328 | 3.5 | 12.2 | 0.00 | 0.00 | 0.00 | 54 | 1015.5 |
| 20260905214531 | 62 | 355 | 3.5 | 10.4 | 0.00 | 0.00 | 0.00 | 55 | 1015.6 |
| 20260905213031 | 62 | 19 | 1.7 | 9.6 | 0.00 | 0.00 | 0.00 | 55 | 1015.7 |
| 20260905211529 | 61 | 61 | 3.5 | 11.3 | 0.00 | 0.00 | 0.00 | 56 | 1015.6 |
| 20260905210030 | 61 | 339 | 2.6 | 11.3 | 0.00 | 0.00 | 0.00 | 57 | 1015.6 |
| 20260905204528 | 59 | 38 | 3.5 | 9.6 | 0.00 | 0.00 | 0.00 | 57 | 1015.8 |
| 20260905203028 | 60 | 305 | 3.5 | 10.4 | 0.00 | 0.00 | 0.00 | 59 | 1016.0 |
| 20260905201527 | 58 | 322 | 4.3 | 8.7 | 0.00 | 0.00 | 0.00 | 59 | 1016.0 |
| 20260905200039 | 59 | 320 | 5.2 | 8.7 | 0.00 | 0.00 | 0.00 | 57 | 1016.1 |
| 20260905194526 | 61 | 319 | 3.5 | 8.7 | 0.00 | 0.00 | 0.00 | 54 | 1016.1 |
| 20260905193025 | 61 | 78 | 2.6 | 9.6 | 0.00 | 0.00 | 0.00 | 55 | 1016.2 |
| 20260905191529 | 61 | 50 | 1.7 | 7.8 | 0.00 | 0.00 | 0.00 | 55 | 1016.2 |
| 20260905190041 | 61 | 327 | 3.5 | 7.0 | 0.00 | 0.00 | 0.00 | 54 | 1016.2 |
| 20260905184522 | 60 | 316 | 2.6 | 7.8 | 0.00 | 0.00 | 0.00 | 55 | 1016.2 |
| 20260905183021 | 60 | 81 | 2.6 | 5.2 | 0.00 | 0.00 | 0.00 | 55 | 1016.3 |
| 20260905181525 | 59 | 322 | 2.6 | 7.0 | 0.00 | 0.00 | 0.00 | 57 | 1016.4 |
| 20260905180022 | 60 | 341 | 0.0 | 4.3 | 0.00 | 0.00 | 0.00 | 55 | 1016.5 |
| 20260905174538 | 63 | 75 | 0.0 | 1.7 | 0.00 | 0.00 | 0.00 | 49 | 1016.5 |
| 20260905173036 | 58 | 40 | 1.7 | 4.3 | 0.00 | 0.00 | 0.00 | 63 | 1016.6 |
| 20260905171537 | 57 | 287 | 0.9 | 4.3 | 0.00 | 0.00 | 0.00 | 64 | 1016.7 |
| 20260905170035 | 57 | 31 | 0.0 | 2.6 | 0.00 | 0.00 | 0.00 | 65 | 1016.7 |
| 20260905164535 | 55 | 47 | 0.9 | 4.3 | 0.00 | 0.00 | 0.00 | 69 | 1016.8 |
| 20260905163028 | 54 | 45 | 1.7 | 5.2 | 0.00 | 0.00 | 0.00 | 69 | 1016.7 |
| 20260905161527 | 54 | 284 | 0.9 | 5.2 | 0.00 | 0.00 | 0.00 | 68 | 1016.5 |
| 20260905160026 | 55 | 313 | 0.9 | 2.6 | 0.00 | 0.00 | 0.00 | 70 | 1016.5 |
| 20260905154524 | 54 | 317 | 1.7 | 4.3 | 0.00 | 0.00 | 0.00 | 71 | 1016.7 |
| 20260905153027 | 54 | 321 | 0.0 | 1.7 | 0.00 | 0.00 | 0.00 | 71 | 1016.4 |
| 20260905151519 | 53 | 63 | 0.9 | 1.7 | 0.00 | 0.00 | 0.00 | 73 | 1016.3 |
| 20260905150019 | 52 | 71 | 0.0 | 0.9 | 0.00 | 0.00 | 0.00 | 78 | 1016.4 |
| 20260905144511 | 51 | 70 | 0.0 | 0.0 | 0.00 | 0.00 | 0.00 | 82 | 1016.3 |
| 20260905143018 | 50 | 70 | 0.0 | 0.9 | 0.00 | 0.00 | 0.00 | 83 | 1016.2 |
| 20260905141505 | 48 | 70 | 0.9 | 1.7 | 0.00 | 0.00 | 0.00 | 85 | 1016.1 |
| 20260905140004 | 45 | 84 | 1.7 | 1.7 | 0.00 | 0.00 | 0.00 | 87 | 1015.9 |
| 20260905134502 | 0 | 0.0 | 0.0 | 0.00 | 0.00 | 0.00 | 1015.7 | ||
| 20260905133105 | 0 | 0.0 | 0.0 | 0.00 | 0.00 | 0.00 | 1015.7 | ||
| 20260905131605 | 0 | 0.0 | 0.0 | 0.00 | 0.00 | 0.00 | 1015.6 | ||
| 20260905130050 | 0 | 0.0 | 0.0 | 0.00 | 0.00 | 0.00 | 1015.5 | ||
| 20260905124543 | 0 | 0.0 | 0.0 | 0.00 | 0.00 | 0.00 | 1015.7 | ||
| 20260905123039 | 0 | 0.0 | 0.0 | 0.00 | 0.00 | 0.00 | 1015.7 | ||
| 20260905121537 | 0 | 0.0 | 0.0 | 0.00 | 0.00 | 0.00 | 1015.8 | ||
| 20260905120031 | 0 | 0.0 | 0.0 | 0.00 | 0.00 | 0.00 | 1015.8 | ||
| 20260905114529 | 47 | 119 | 0.0 | 2.6 | 0.00 | 0.00 | 0.00 | 83 | 1015.8 |
| 20260905113027 | 47 | 63 | 0.9 | 2.6 | 0.00 | 0.00 | 0.00 | 85 | 1015.8 |
| 20260905111547 | 46 | 71 | 1.7 | 2.6 | 0.00 | 0.00 | 0.00 | 84 | 1015.7 |
| 20260905110027 | 46 | 73 | 1.7 | 1.7 | 0.00 | 0.00 | 0.00 | 84 | 1015.7 |
| 20260905104525 | 47 | 83 | 0.9 | 2.6 | 0.00 | 0.00 | 0.00 | 82 | 1015.6 |
| 20260905103027 | 48 | 76 | 1.7 | 2.6 | 0.00 | 0.00 | 0.00 | 82 | 1015.6 |
| 20260905101523 | 49 | 249 | 0.9 | 3.5 | 0.00 | 0.00 | 0.00 | 81 | 1015.6 |
| 20260905100023 | 47 | 75 | 1.7 | 1.7 | 0.00 | 0.00 | 0.00 | 84 | 1015.6 |
| 20260905094521 | 47 | 78 | 0.9 | 1.7 | 0.00 | 0.00 | 0.00 | 84 | 1015.4 |
| 20260905093020 | 46 | 71 | 1.7 | 2.6 | 0.00 | 0.00 | 0.00 | 83 | 1015.4 |
| 20260905091519 | 46 | 59 | 1.7 | 1.7 | 0.00 | 0.00 | 0.00 | 83 | 1015.4 |
| 20260905090018 | 48 | 66 | 1.7 | 2.6 | 0.00 | 0.00 | 0.00 | 80 | 1015.3 |
| 20260905084519 | 49 | 99 | 0.9 | 4.3 | 0.00 | 0.00 | 0.00 | 80 | 1015.0 |
| 20260905083016 | 50 | 76 | 0.0 | 1.7 | 0.00 | 0.00 | 0.00 | 78 | 1015.1 |
| 20260905081514 | 49 | 77 | 0.0 | 1.7 | 0.00 | 0.00 | 0.00 | 82 | 1015.0 |
| 20260905080012 | 49 | 152 | 0.0 | 2.6 | 0.00 | 0.00 | 0.00 | 83 | 1015.2 |
| 20260905074513 | 48 | 132 | 1.7 | 4.3 | 0.00 | 0.00 | 0.00 | 84 | 1015.2 |
| 20260905073010 | 48 | 96 | 0.0 | 5.2 | 0.00 | 0.00 | 0.00 | 82 | 1015.3 |
| 20260905071506 | 47 | 126 | 4.3 | 6.1 | 0.00 | 0.00 | 0.00 | 84 | 1015.2 |
| 20260905070005 | 45 | 75 | 0.9 | 2.6 | 0.00 | 0.00 | 0.00 | 81 | 1015.0 |
| 20260905064559 | 48 | 72 | 0.9 | 1.7 | 0.00 | 0.00 | 0.00 | 77 | 1014.7 |
| 20260905063059 | 49 | 57 | 0.0 | 0.9 | 0.00 | 0.00 | 0.00 | 77 | 1014.4 |
| 20260905061559 | 48 | 44 | 0.9 | 2.6 | 0.00 | 0.00 | 0.00 | 75 | 1014.3 |
| 20260905060056 | 51 | 73 | 0.0 | 1.7 | 0.00 | 0.00 | 0.00 | 72 | 1014.4 |
| 20260905054555 | 52 | 305 | 0.0 | 2.6 | 0.00 | 0.00 | 0.00 | 70 | 1014.4 |
| 20260905053135 | 53 | 251 | 4.3 | 7.0 | 0.00 | 0.00 | 0.00 | 70 | 1014.3 |
| 20260905051554 | 54 | 309 | 1.7 | 7.0 | 0.00 | 0.00 | 0.00 | 69 | 1014.3 |
| 20260905050054 | 55 | 256 | 7.8 | 10.4 | 0.00 | 0.00 | 0.00 | 65 | 1014.3 |
| 20260905044552 | 53 | 83 | 0.0 | 1.7 | 0.00 | 0.00 | 0.00 | 68 | 1014.1 |
| 20260905043050 | 54 | 83 | 1.7 | 2.6 | 0.00 | 0.00 | 0.00 | 63 | 1013.9 |
| 20260905041549 | 54 | 82 | 0.0 | 1.7 | 0.00 | 0.00 | 0.00 | 63 | 1013.9 |
| 20260905040047 | 54 | 129 | 0.0 | 0.9 | 0.00 | 0.00 | 0.00 | 60 | 1013.8 |
| 20260905034550 | 55 | 130 | 0.0 | 1.7 | 0.00 | 0.00 | 0.00 | 61 | 1013.7 |
| 20260905033057 | 56 | 105 | 0.0 | 1.7 | 0.00 | 0.00 | 0.00 | 60 | 1013.7 |
| 20260905031547 | 56 | 72 | 0.9 | 2.6 | 0.00 | 0.00 | 0.00 | 60 | 1013.7 |
| 20260905030044 | 56 | 64 | 1.7 | 2.6 | 0.00 | 0.00 | 0.00 | 61 | 1013.6 |
| 20260905024542 | 56 | 65 | 2.6 | 4.3 | 0.00 | 0.00 | 0.00 | 61 | 1013.4 |
| 20260905023043 | 56 | 98 | 2.6 | 3.5 | 0.00 | 0.00 | 0.00 | 59 | 1013.4 |
| 20260905021540 | 58 | 74 | 2.6 | 3.5 | 0.00 | 0.00 | 0.00 | 56 | 1013.4 |
| 20260905020039 | 60 | 62 | 2.6 | 4.3 | 0.00 | 0.00 | 0.00 | 52 | 1013.3 |
| 20260905014539 | 61 | 48 | 3.5 | 5.2 | 0.00 | 0.00 | 0.00 | 50 | 1013.1 |
| 20260905013038 | 63 | 56 | 3.5 | 8.7 | 0.00 | 0.00 | 0.00 | 48 | 1013.0 |
| 20260905011538 | 64 | 59 | 2.6 | 6.1 | 0.00 | 0.00 | 0.00 | 46 | 1012.8 |
| 20260905010036 | 63 | 43 | 0.0 | 4.3 | 0.00 | 0.00 | 0.00 | 44 | 1012.8 |